Current weather by "City, St" or "zip code"  
 

Current Conditions: Grissom Air Force Base / Peru, IN

Partly Cloudy


52.0 F

Last Updated on Sep 18 2020, 2:56 am EDT
Humidity: 92%
Wind Speed: N 5.8 mph
Barometer 30.16 in
Dewpoint: 49.5 F
Visibility: 10.00 mi
Precip: --
Heat Index: NA
Wind Chill: 50 F
Current conditions at:

Grissom Air Force Base / Peru, IN (KGUS)

Lat: 40.65 Lon: 86.15

Local Radar Image active severe weather and emergency alerts image image weather storm and storm spotter reports image weather observation monitoring service image
Local
Radar
Active
Alerts
Storm Reports Obs
Monitoring

Sign-up For Email & Text Message Weather Alert Notification Services



Advertise Here

Observation History for Grissom Air Force Base / Peru, IN


Time Wind
(mph)
Vis
(mi)
Weather Precip (in) Temperature (F) Relative
Humidity
Wind
Chill
(F)
Heat
Index
(F)
Pressure
Air Dwpt altimeter
(in)
sea level
(mb)
Rmks
2:56 am EDT N 5.8 10.00 Partly Cloudy -- 52.0 49.5 92% 50 NA 30.16 1021.5
1:56 am EDT N 6.9 10.00 Mostly Cloudy -- 54.0 51.4 91% 52 NA 30.15 1021.2
12:56 am EDT N 6.9 10.00 Fair -- 55.0 53.4 94% 53 NA 30.14 1020.8
11:56 pm EDT N 5.8 10.00 NULL -- 56.0 53.6 90% 55 NA 30.13 1020.4
10:56 pm EDT N 6.9 10.00 Fair -- 58.0 53.2 83% 57 NA 30.12 1020.1
9:56 pm EDT N 8.1 10.00 Fair -- 59.0 53.4 82% 58 NA 30.10 1019.4
8:56 pm EDT N 6.9 10.00 Partly Cloudy -- 63.0 55.4 77% 63 NA 30.08 1018.7
7:56 pm EDT NE 6.9 10.00 A Few Clouds -- 62.0 58.8 88% 62 NA 30.06 1018.1
6:56 pm EDT NE 10.4 10.00 Mostly Cloudy -- 68.0 59.0 74% NA NA 30.06 1018.0
5:56 pm EDT NE 6.9 10.00 Mostly Cloudy -- 69.0 57.9 68% NA NA 30.05 1017.7
4:56 pm EDT E 10.4 10.00 Partly Cloudy -- 69.0 56.7 64% NA NA 30.05 1017.7
3:56 pm EDT NE 10.4 10.00 Mostly Cloudy -- 69.0 59.0 71% NA NA 30.06 1018.0
2:56 pm EDT NE 12.7 10.00 Overcast -- 68.0 60.8 77% NA NA 30.07 1018.3
1:56 pm EDT NE 13.8 10.00 Overcast -- 68.0 61.0 79% NA NA 30.08 1018.7
12:56 pm EDT NE 12.7 10.00 Overcast -- 69.0 61.9 78% NA NA 30.08 1018.7
11:56 am EDT NE 15.0 G 18.4 10.00 Overcast -- 68.0 61.9 82% NA NA 30.09 1019.0
10:56 am EDT E 11.5 10.00 Overcast -- 66.0 63.0 89% NA NA 30.07 1018.3
9:56 am EDT E 13.8 10.00 Mostly Cloudy -- 64.0 64.2 100% NA NA 30.05 1017.7
8:56 am EDT E 13.8 10.00 Overcast -- 62.0 62.2 100% 60 NA 30.03 1017.0
7:56 am EDT NE 4.6 10.00 Mostly Cloudy -- 59.0 59.2 100% 59 NA 30.02 1016.7
6:56 am EDT N 0.0 10.00 Mostly Cloudy -- 61.0 58.8 93% NA NA 30.01 1016.3
5:56 am EDT N 0.0 10.00 Mostly Cloudy -- 61.0 58.6 93% NA NA 30.00 1015.9
4:56 am EDT NW 3.5 10.00 Overcast -- 60.0 57.9 93% NA NA 30.00 1015.8
3:56 am EDT SW 4.6 10.00 Fair -- 58.0 56.8 95% 58 NA 30.00 1015.9

Regional Weather Observation


Grissom Air Force Base / Peru, IN (KGUS)

Partly Cloudy
52.0 F

Kokomo, Kokomo Municipal Airport, IN (KOKK)

Mostly Cloudy
52.0 F

Rochester Fulton County Airport, IN (KRCR)

Fair
52.0 F

Lafayette, Purdue University Airport, IN (KLAF)

Fair
56.0 F

Starke County Airport, IN (KOXI)

Fair
50.0 F

INDIANAPOLIS, IN (KTYQ)

Fair
51.0 F